Location: Juzet
(42.9779°N, 0.7597°E)
Time: 19:00:03
(UTC+00:00)

Cosmos 1184 Rocket - Pass Details

Date: 14 July 2020
Orbit: 408 x 422 km, 81.2° (Epoch: 12 August)

Event Time Altitude Azimuth Distance (km) Brightness Sun altitude
Exits shadow 00:50:00 33° 39° (NE) 731 4.4 -24.5°
Drops below altitude 10° 00:52:03 10° 20° (NNE) 1,500 6.6 -24.4°
Sets 00:54:07 0° 15° (NNE) 2,372 8.0 -24.3°
